Hatteras, NC

1:13 PM EDT on July 27, 2017 (GMT -0400)
Mitchell

Weather History for KHSE - April, 2013

Change the Weather History Date:

Sunday, April 14, 2013

  Actual Average Record
Temperature  
Mean Temperature 61 °F 59 °F  
Max Temperature 74 °F 66 °F 80 °F (1994)
Min Temperature 47 °F 52 °F 36 °F (1950)
Degree Days  
Heating Degree Days 4 7  
Month to date heating degree days 105 113  
Since 1 July heating degree days 2324 2456  
Cooling Degree Days 0 1  
Month to date cooling degree days 0 5  
Year to date cooling degree days 0 8  
Growing Degree Days 10 (Base 50)    
Moisture  
Dew Point 49 °F    
Average Humidity 64    
Maximum Humidity 89    
Minimum Humidity 38    
Precipitation  
Precipitation 0.00 in 0.12 in 1.99 in (1909)
Month to date precipitation 1.64 1.82  
Year to date precipitation 13.59 15.85  
Snow  
Snow 0.00 in - - ()
Month to date snowfall 0.0  
Since 1 July snowfall 0.0  
Snow Depth 0.00 in    
Sea Level Pressure  
Sea Level Pressure 30.09 in    
Wind  
Wind Speed 6 mph (SSE)    
Max Wind Speed 13 mph    
Max Gust Speed 17 mph    
Visibility 8 miles    
Events      
T = Trace of Precipitation, MM = Missing Value Source: NWS Daily Summary

Daily Weather History Graph

Daily Weather History Graph

Search for Another Location

Airport or City:

Trip Planner

Search our weather history database for the weather conditions in past years. The results will help you decide how hot, cold, wet, or windy it might be!

Date:

Astronomy

Apr. 14, 2013 Rise Set
Actual Time 6:31 AM EDT 7:34 PM EDT
Civil Twilight 6:05 AM EDT 8:00 PM EDT
Nautical Twilight 5:34 AM EDT 8:31 PM EDT
Astronomical Twilight 5:02 AM EDT 9:04 PM EDT
Moon 9:12 AM EDT (4/14) 11:39 PM EDT (4/14)
Length of Visible Light 13h 55m
Length of Day
13h 03m
Waxing Crescent, 17% of the Moon is Illuminated
Apr 14
Waxing Crescent
Apr 18
First Quarter
Apr 25
Full
May 2
Last Quarter
May 9
New

Hourly Weather History & Observations

Time (EDT) Temp. Dew Point Humidity Pressure Visibility Wind Dir Wind Speed Gust Speed Precip Events Conditions
12:51 AM 50.0 °F 46.0 °F 86% 30.03 in 4.0 mi ESE 4.6 mph - N/A   Clear
1:51 AM 50.0 °F 46.9 °F 89% 30.03 in 3.0 mi ESE 3.5 mph - N/A   Clear
2:29 AM 48.2 °F 46.4 °F 93% 30.03 in 2.5 mi Calm Calm - N/A   Clear
2:40 AM 48.2 °F 44.6 °F 87% 30.03 in 4.0 mi SE 3.5 mph - N/A   Clear
2:51 AM 48.0 °F 44.1 °F 86% 30.03 in 4.0 mi Calm Calm - N/A   Clear
3:51 AM 48.9 °F 45.0 °F 86% 30.04 in 4.0 mi SSW 3.5 mph - N/A   Clear
4:51 AM 51.1 °F 46.9 °F 86% 30.04 in 7.0 mi SSW 3.5 mph - N/A   Clear
5:51 AM 54.0 °F 50.0 °F 86% 30.05 in 10.0 mi WSW 3.5 mph - N/A   Clear
6:51 AM 55.9 °F 52.0 °F 87% 30.08 in 10.0 mi West 5.8 mph - N/A   Clear
7:51 AM 59.0 °F 54.0 °F 83% 30.10 in 5.0 mi WSW 3.5 mph - N/A   Haze
8:51 AM 64.9 °F 55.0 °F 70% 30.11 in 10.0 mi West 5.8 mph - N/A   Clear
9:51 AM 64.9 °F 54.0 °F 68% 30.12 in 10.0 mi SW 3.5 mph - N/A   Clear
10:51 AM 64.9 °F 53.1 °F 65% 30.14 in 10.0 mi SW 6.9 mph - N/A   Clear
11:51 AM 66.9 °F 52.0 °F 59% 30.13 in 10.0 mi SW 6.9 mph - N/A   Clear
12:51 PM 68.0 °F 50.0 °F 52% 30.13 in 10.0 mi SW 4.6 mph - N/A   Clear
1:51 PM 69.1 °F 46.0 °F 44% 30.12 in 10.0 mi South 3.5 mph - N/A   Clear
2:51 PM 72.0 °F 48.9 °F 44% 30.12 in 10.0 mi SSE 4.6 mph - N/A   Clear
3:51 PM 73.9 °F 46.0 °F 37% 30.09 in 10.0 mi SE 10.4 mph - N/A   Clear
4:51 PM 69.1 °F 48.9 °F 49% 30.10 in 10.0 mi ESE 10.4 mph - N/A   Clear
5:51 PM 64.9 °F 51.1 °F 61% 30.11 in 10.0 mi ESE 8.1 mph - N/A   Clear
6:51 PM 63.0 °F 48.0 °F 58% 30.12 in 10.0 mi East 8.1 mph - N/A   Clear
7:51 PM 59.0 °F 50.0 °F 72% 30.13 in 10.0 mi East 8.1 mph - N/A   Clear
8:51 PM 59.0 °F 51.1 °F 75% 30.15 in 10.0 mi East 6.9 mph - N/A   Clear
9:51 PM 60.1 °F 46.9 °F 62% 30.14 in 10.0 mi East 6.9 mph - N/A   Clear
10:51 PM 60.1 °F 46.9 °F 62% 30.12 in 10.0 mi East 9.2 mph - N/A   Clear
11:51 PM 62.1 °F 44.1 °F 52% 30.09 in 10.0 mi East 9.2 mph - N/A   Clear